Location: Rosenheim
(47.8408°N, 12.2113°E)
Time: 23:27:07
(UTC+01:00)

ISS - Pass Details

Date: 13 November 2017
Orbit: 401 x 407 km, 51.6° (Epoch: 25 November)

Event Time Altitude Azimuth Distance (km) Brightness Sun altitude
Exits shadow 05:02:56 50° 56° (NE) 523 -3.1 -22.0°
Drops below altitude 10° 05:05:39 10° 96° (E) 1,454 0.1 -21.5°
Sets 05:07:45 0° 101° (E) 2,311 1.5 -21.2°
